Location: Battersea Observatory
(44.4318°N, 76.3841°W)
Time: 23:26:20
(UTC-04:00)

Tiangong - Visible Passes

Search period start: 30 May 2023 00:00
Search period end: 09 June 2023 00:00
Orbit: 386 x 392 km, 41.5° (Epoch: 30 May)

Date Brightness Start Highest point End Pass type
(mag) Time Alt. Az. Time Alt. Az. Time Alt. Az.
01 Jun 0.0 04:39:29 10° SSW 04:41:40 17° SSE 04:43:51 10° ESE visible
02 Jun 0.3 03:43:13 11° SSE 03:43:36 11° SSE 03:44:40 10° SE visible
03 Jun -0.7 04:19:41 14° SSW 04:21:45 25° SSE 04:24:29 10° ESE visible
04 Jun -0.2 03:23:49 18° SSE 03:23:49 18° SSE 03:25:50 10° ESE visible
05 Jun -1.3 04:00:10 21° SW 04:01:44 35° SSE 04:04:42 10° E visible
06 Jun -0.5 03:04:11 24° SE 03:04:11 24° SE 03:06:09 10° E visible
06 Jun -1.8 04:36:54 10° WSW 04:40:00 49° S 04:43:07 10° ESE visible
07 Jun -1.7 03:40:28 30° SW 03:41:35 44° S 03:44:39 10° E visible
08 Jun -0.5 02:44:28 24° ESE 02:44:28 24° ESE 02:46:05 10° E visible
08 Jun -1.8 04:16:44 10° W 04:19:47 48° S 04:22:53 10° ESE visible
